Location: Bruderhein
(53.8035°N, 112.9265°W)
Time: 01:43:22
(UTC+00:00)

KKS-1 - Pass Details

Date: 06 April 2023
Orbit: 633 x 644 km, 98.2° (Epoch: 31 May)

Event Time Altitude Azimuth Distance (km) Brightness Sun altitude
Rises 04:45:26 0° 29° (NNE) 2,944 ? -20.2°
Reaches altitude 10° 04:48:48 10° 57° (ENE) 2,029 ? -20.6°
Enters shadow 04:49:14 11° 62° (ENE) 1,957 ? -20.6°
